Zurück zum Katalog

CZ-3C DEB

AktivGTO
NORAD 40860·DEBRIS·🇨🇳 China

Gestartet Feb 24, 2012 von Xichang Satellite Launch Center

Loading…

TLE

VeraltetSource: Space-Track

Epoche: Sep 8, 2026, 07:41 UTC

1 40860U 12008AA  26251.32062109  .00000775  00000-0  33630-2 0  9994
2 40860  19.0501 295.4559 7244568  50.6316 353.7139  2.23986421  8941

Verfolge CZ-3C DEB in Echtzeit mit AllMySat

Download on the App Store